This is the latest recevied weather packets stored in our database for station/object KC9MWQ-13. If no packets are shown the sender has not sent any weather packets the latest 10 day(s).
| Time | Temp. | Humidity | Pressure | Rain* | Wind** | Luminosity | Snow |
|---|---|---|---|---|---|---|---|
| 1777739282 | 9.44° C | 65% | 1020.5 hPa | 0 mm | - | 248 W/m² | - |
| 1777738979 | 8.89° C | 63% | 1020.7 hPa | 0 mm | - | 863 W/m² | - |
| 1777738675 | 8.33° C | 68% | 1020.8 hPa | 0 mm | - | 492 W/m² | - |
| 1777738371 | 8.33° C | 67% | 1020.7 hPa | 0 mm | - | 366 W/m² | - |
| 1777738070 | 8.33° C | 65% | 1020.6 hPa | 0 mm | - | 359 W/m² | - |
| 1777737769 | 7.78° C | 67% | 1020.8 hPa | 0 mm | - | 378 W/m² | - |
| 1777737467 | 7.78° C | 66% | 1020.7 hPa | 0 mm | - | 301 W/m² | - |
| 1777737165 | 7.78° C | 65% | 1020.5 hPa | 0 mm | - | 272 W/m² | - |
| 1777736859 | 7.78° C | 65% | 1020.7 hPa | 0 mm | - | 223 W/m² | - |
| 1777736246 | 7.22° C | 69% | 1020.5 hPa | 0 mm | - | 224 W/m² | - |
| 1777735943 | 7.22° C | 67% | 1020.5 hPa | 0 mm | - | 223 W/m² | - |
| 1777735641 | 8.33° C | 68% | 1020.5 hPa | 0 mm | - | 291 W/m² | - |
| 1777735338 | 8.89° C | 68% | 1020.5 hPa | 0 mm | - | 586 W/m² | - |
| 1777735036 | 8.89° C | 67% | 1020.6 hPa | 0 mm | - | 1011 W/m² | - |
| 1777734733 | 7.78° C | 67% | 1020.7 hPa | 0 mm | - | 905 W/m² | - |
| 1777734430 | 8.33° C | 64% | 1020.7 hPa | 0 mm | - | 927 W/m² | - |
| 1777734126 | 8.33° C | 69% | 1020.4 hPa | 0 mm | - | 988 W/m² | - |
| 1777733823 | 7.22° C | 70% | 1020.6 hPa | 0 mm | - | 918 W/m² | - |
| 1777733520 | 7.22° C | 69% | 1020.7 hPa | 0 mm | - | 115 W/m² | - |
| 1777733216 | 7.78° C | 68% | 1020.4 hPa | 0 mm | - | 220 W/m² | - |
| 1777732913 | 7.78° C | 69% | 1020.6 hPa | 0 mm | - | 730 W/m² | - |
| 1777732609 | 7.22° C | 71% | 1020.6 hPa | 0 mm | - | 744 W/m² | - |
| 1777732307 | 7.22° C | 69% | 1020.4 hPa | 0 mm | - | 757 W/m² | - |
| 1777732003 | 6.67° C | 68% | 1020.6 hPa | 0 mm | - | 723 W/m² | - |
| 1777731700 | 7.22° C | 71% | 1020.6 hPa | 0 mm | - | 684 W/m² | - |
* Rain latest hour (hover to see other rain measurements)
** Current wind speed in m/s (hover to see current wind gust speed)